Tracking 31011 objects as of 12-Jul-2025
HD Live streaming from Space Station
objects crossing your sky now

INSAT 2R (ARABSAT 1C)

Track INSAT 2R (ARABSAT 1C) now!
INSAT 2R (ARABSAT 1C) is classified as:


NORAD ID: 21894
Int'l Code: 1992-010B
Perigee: 36,133.7 km
Apogee: 36,356.1 km
Inclination: 14.1 °
Period: 1,459.2 minutes
Semi major axis: 42615 km
RCS: 2.2387 m2 (large)
Launch date: February 26, 1992
Source: India (IND)
Launch site: FRENCH GUIANA (FRGUI)
Your satellite tracking list
Your tracking list is empty




NASA's NSSDC Master Catalog

Two Line Element Set (TLE):
1 21894U 92010B   25192.63979770 -.00000033  00000-0  00000-0 0  9990
2 21894  14.0948  14.1237 0026088 266.9019 276.4842  0.98683741120885
Source of the keplerian elements: AFSPC